 day,  time,  air_temp(C),  RH(%),  ground_temp10cm(C),  ground_temp20cm(C),  ground_temp40cm(C),  precipitation(mm/h),  Solar_Radiation(MJ/m2h),  lack, 
 09/08/01, 01:00,  16.8, -9999,  21.0,  21.2,  19.9,   0.0,  0.00, 
 09/08/01, 02:00,  17.1, -9999,  20.7,  21.1,  19.8,   0.0,  0.00, 
 09/08/01, 03:00,  17.1, -9999,  20.6,  21.0,  19.8,   0.5,  0.00, 
 09/08/01, 04:00,  17.2, -9999,  20.5,  20.9,  19.8,   1.5,  0.00, 
 09/08/01, 05:00,  17.1, -9999,  20.4,  20.9,  19.8,   1.5,  0.00, 
 09/08/01, 06:00,  17.1, -9999,  20.2,  20.8,  19.8,   1.0,  0.03, 
 09/08/01, 07:00,  17.9, -9999,  20.1,  20.8,  19.8,   0.0,  0.36, 
 09/08/01, 08:00,  18.6, -9999,  20.2,  20.7,  19.9,   0.0,  0.44, 
 09/08/01, 09:00,  19.2, -9999,  20.3,  20.6,  20.0,   0.0,  0.82, 
 09/08/01, 10:00,  20.1, -9999,  20.7,  20.6,  19.9,   0.0,  1.71, 
 09/08/01, 11:00,  19.6, -9999,  21.2,  20.6,  20.0,   0.5,  0.80, 
 09/08/01, 12:00,  19.1, -9999,  21.3,  20.5,  19.9,   3.0,  0.26, 
 09/08/01, 13:00,  18.5, -9999,  21.3,  20.5,  19.8,   3.5,  0.13, 
 09/08/01, 14:00,  18.5, -9999,  21.2,  20.7,  19.9,   8.0,  0.44, 
 09/08/01, 15:00,  18.5, -9999,  21.1,  20.8,  19.8,   1.5,  0.21, 
 09/08/01, 16:00,  17.7, -9999,  21.0,  20.8,  19.8,   3.5,  0.21, 
 09/08/01, 17:00,  17.8, -9999,  20.9,  20.8,  19.8,   0.5,  0.19, 
 09/08/01, 18:00,  18.4, -9999,  20.8,  20.8,  19.9,   0.0,  0.42, 
 09/08/01, 19:00,  17.8, -9999,  20.8,  20.8,  19.9,   0.0,  0.10, 
 09/08/01, 20:00,  17.7, -9999,  20.8,  20.7,  19.9,   0.0,  0.00, 
 09/08/01, 21:00,  17.6, -9999,  20.7,  20.7,  19.9,   0.0,  0.00, 
 09/08/01, 22:00,  17.4, -9999,  20.4,  20.7,  20.0,   0.0,  0.00, 
 09/08/01, 23:00,  17.0, -9999,  20.3,  20.5,  20.0,   0.0,  0.00, 
 09/08/02, 00:00,  17.4, -9999,  20.2,  20.6,  20.0,   0.0,  0.00, 
 09/08/02, 01:00,  17.1, -9999,  20.1,  20.6,  20.0,   0.5,  0.00, 
 09/08/02, 02:00,  16.9, -9999,  19.9,  20.4,  19.9,   3.5,  0.00, 
 09/08/02, 03:00,  17.0, -9999,  19.7,  20.5,  19.9,   6.0,  0.00, 
 09/08/02, 04:00,  16.8, -9999,  19.4,  20.4,  19.9,   9.0,  0.00, 
 09/08/02, 05:00,  16.6, -9999,  19.2,  20.2,  19.9,   0.5,  0.00, 
 09/08/02, 06:00,  16.6, -9999,  19.2,  20.1,  19.9,   0.0,  0.00, 
 09/08/02, 07:00,  16.9, -9999,  19.1,  20.1,  19.9,   0.0,  0.10, 
 09/08/02, 08:00,  16.6, -9999,  19.1,  20.0,  20.0,   4.0,  0.14, 
 09/08/02, 09:00,  16.2, -9999,  19.1,  20.0,  20.0,   2.5,  0.31, 
 09/08/02, 10:00,  17.4, -9999,  19.2,  19.9,  20.0,   0.5,  0.62, 
 09/08/02, 11:00,  17.8, -9999,  19.3,  19.8,  19.8,   0.0,  0.63, 
 09/08/02, 12:00,  17.4, -9999,  19.6,  19.7,  19.8,   0.5,  0.56, 
 09/08/02, 13:00,  19.0, -9999,  19.7,  19.8,  19.8,   0.0,  1.11, 
 09/08/02, 14:00,  19.0, -9999,  20.1,  19.8,  19.8,   0.0,  0.98, 
 09/08/02, 15:00,  18.8, -9999,  20.3,  19.7,  19.8,   0.0,  0.65, 
 09/08/02, 16:00,  18.1, -9999,  20.5,  19.9,  19.8,   0.0,  0.36, 
 09/08/02, 17:00,  17.7, -9999,  20.5,  19.9,  19.8,   2.0,  0.10, 
 09/08/02, 18:00,  17.4, -9999,  20.3,  20.0,  19.7,   2.5,  0.00, 
 09/08/02, 19:00,  17.1, -9999,  20.2,  20.0,  19.7,   2.5,  0.08, 
 09/08/02, 20:00,  16.8, -9999,  20.0,  19.9,  19.7,   0.0,  0.00, 
 09/08/02, 21:00,  16.4, -9999,  19.9,  20.1,  19.8,   0.0,  0.00, 
 09/08/02, 22:00,  16.5, -9999,  19.7,  20.0,  19.7,   0.0,  0.00, 
 09/08/02, 23:00,  16.6, -9999,  19.7,  20.0,  19.8,   0.0,  0.00, 
 09/08/03, 00:00,  16.6, -9999,  19.6,  20.0,  19.8,   0.0,  0.00, 
 09/08/03, 01:00,  16.6, -9999,  19.5,  19.9,  19.7,   0.0,  0.00, 
 09/08/03, 02:00,  16.3, -9999,  19.4,  19.8,  19.7,   0.0,  0.00, 
 09/08/03, 03:00,  16.1, -9999,  19.3,  19.8,  19.7,   0.0,  0.00, 
 09/08/03, 04:00,  15.2, -9999,  19.2,  19.7,  19.7,   0.0,  0.00, 
 09/08/03, 05:00,  14.7, -9999,  19.0,  19.7,  19.7,   0.0,  0.00, 
 09/08/03, 06:00,  14.5, -9999,  18.8,  19.7,  19.6,   0.0,  0.02, 
 09/08/03, 07:00,  16.4, -9999,  18.6,  19.7,  19.6,   0.0,  0.68, 
 09/08/03, 08:00,  16.6, -9999,  18.6,  19.6,  19.7,   0.0,  1.17, 
 09/08/03, 09:00,  17.7, -9999,  19.0,  19.6,  19.7,   0.0,  1.74, 
 09/08/03, 10:00,  18.7, -9999,  19.6,  19.5,  19.7,   0.0,  2.09, 
 09/08/03, 11:00,  21.8, -9999,  20.3,  19.5,  19.7,   0.0,  3.05, 
 09/08/03, 12:00,  21.7, -9999,  21.6,  19.5,  19.7,   0.0,  2.51, 
 09/08/03, 13:00,  23.6, -9999,  22.5,  19.7,  19.7,   0.0,  3.39, 
 09/08/03, 14:00,  24.0, -9999,  22.8,  19.8,  19.5,   0.0,  3.39, 
 09/08/03, 15:00,  24.8, -9999,  22.8,  20.1,  19.6,   0.0,  2.96, 
 09/08/03, 16:00,  24.3, -9999,  22.8,  20.3,  19.6,   0.0,  2.40, 
 09/08/03, 17:00,  22.9, -9999,  23.0,  20.4,  19.6,   0.0,  1.40, 
 09/08/03, 18:00,  21.8, -9999,  23.0,  20.7,  19.6,   0.0,  0.42, 
 09/08/03, 19:00,  19.9, -9999,  22.9,  20.8,  19.6,   0.0,  0.14, 
 09/08/03, 20:00,  19.2, -9999,  22.6,  20.9,  19.6,   0.0,  0.00, 
 09/08/03, 21:00,  18.9, -9999,  22.2,  21.0,  19.6,   0.0,  0.00, 
 09/08/03, 22:00,  18.9, -9999,  21.9,  21.0,  19.6,   0.0,  0.00, 
 09/08/03, 23:00,  18.6, -9999,  21.7,  21.1,  19.7,   0.0,  0.00, 
 09/08/04, 00:00,  18.7, -9999,  21.6,  21.1,  19.7,   0.0,  0.00, 
 09/08/04, 01:00,  18.6, -9999,  21.5,  20.9,  19.7,   0.0,  0.00, 
 09/08/04, 02:00,  18.5, -9999,  21.3,  21.0,  19.7,   0.0,  0.00, 
 09/08/04, 03:00,  18.1, -9999,  21.2,  20.9,  19.6,   0.0,  0.00, 
 09/08/04, 04:00,  18.1, -9999,  21.0,  20.8,  19.7,   0.0,  0.00, 
 09/08/04, 05:00,  16.9, -9999,  20.8,  20.8,  19.7,   0.0,  0.00, 
 09/08/04, 06:00,  17.2, -9999,  20.8,  20.8,  19.7,   0.0,  0.02, 
 09/08/04, 07:00,  19.8, -9999,  20.5,  20.8,  19.7,   0.0,  0.55, 
 09/08/04, 08:00,  18.3, -9999,  20.5,  20.6,  19.8,   0.0,  0.76, 
 09/08/04, 09:00,  19.9, -9999,  20.8,  20.7,  19.8,   0.0,  1.72, 
 09/08/04, 10:00,  22.9, -9999,  21.3,  20.6,  19.8,   0.0,  2.64, 
 09/08/04, 11:00,  25.0, -9999,  22.2,  20.5,  19.8,   0.0,  3.15, 
 09/08/04, 12:00,  25.1, -9999,  23.7,  20.7,  19.8,   0.0,  3.06, 
 09/08/04, 13:00,  25.7, -9999,  24.7,  20.8,  19.7,   0.0,  3.50, 
 09/08/04, 14:00,  24.0, -9999,  24.9,  21.1,  19.9,   0.0,  2.66, 
 09/08/04, 15:00,  25.3, -9999,  24.8,  21.3,  19.8,   0.0,  2.23, 
 09/08/04, 16:00,  23.0, -9999,  24.7,  21.6,  19.9,   0.0,  1.42, 
 09/08/04, 17:00,  21.7, -9999,  24.8,  21.8,  19.9,   0.0,  0.80, 
 09/08/04, 18:00,  20.4, -9999,  24.6,  22.0,  19.9,   0.0,  0.26, 
 09/08/04, 19:00,  19.2, -9999,  24.2,  22.0,  19.8,   0.0,  0.00, 
 09/08/04, 20:00,  19.0, -9999,  23.9,  22.1,  19.9,   0.0,  0.00, 
 09/08/04, 21:00,  18.8, -9999,  23.6,  22.1,  19.9,   0.0,  0.00, 
 09/08/04, 22:00,  18.5, -9999,  23.3,  22.2,  20.0,   0.0,  0.00, 
 09/08/04, 23:00,  18.1, -9999,  23.0,  22.1,  20.0,   0.0,  0.00, 
 09/08/05, 00:00,  18.6, -9999,  22.7,  22.1,  20.0,   0.0,  0.00, 
 09/08/05, 01:00,  17.8, -9999,  22.4,  22.0,  20.1,   0.0,  0.00, 
 09/08/05, 02:00,  18.5, -9999,  22.1,  22.0,  20.1,   0.0,  0.00, 
 09/08/05, 03:00,  17.9, -9999,  21.9,  21.9,  20.1,   0.0,  0.00, 
 09/08/05, 04:00,  17.6, -9999,  21.7,  21.8,  20.1,   0.0,  0.00, 
 09/08/05, 05:00,  17.8, -9999,  21.6,  21.8,  20.2,   0.0,  0.00, 
 09/08/05, 06:00,  17.4, -9999,  21.3,  21.7,  20.2,   0.0,  0.04, 
 09/08/05, 07:00,  19.7, -9999,  21.1,  21.7,  20.2,   0.0,  0.58, 
 09/08/05, 08:00,  19.2, -9999,  21.1,  21.6,  20.2,   0.0,  0.31, 
 09/08/05, 09:00,  19.8, -9999,  21.3,  21.5,  20.2,   0.0,  0.56, 
 09/08/05, 10:00,  21.2, -9999,  21.4,  21.3,  20.2,   0.0,  1.70, 
 09/08/05, 11:00,  23.7, -9999,  22.0,  21.4,  20.3,   0.0,  2.71, 
 09/08/05, 12:00,  24.9, -9999,  23.3,  21.4,  20.3,   0.0,  3.30, 
 09/08/05, 13:00,  25.8, -9999,  24.5,  21.4,  20.3,   0.0,  2.82, 
 09/08/05, 14:00,  25.0, -9999,  24.9,  21.6,  20.3,   0.0,  2.89, 
 09/08/05, 15:00,  24.6, -9999,  24.9,  21.8,  20.3,   0.0,  2.64, 
 09/08/05, 16:00,  25.5, -9999,  24.9,  22.0,  20.3,   0.0,  2.19, 
 09/08/05, 17:00,  24.3, -9999,  25.0,  22.1,  20.3,   0.0,  1.17, 
 09/08/05, 18:00,  22.4, -9999,  24.9,  22.2,  20.3,   0.0,  0.49, 
 09/08/05, 19:00,  21.0, -9999,  24.6,  22.4,  20.2,   0.0,  0.01, 
 09/08/05, 20:00,  20.1, -9999,  24.3,  22.6,  20.3,   0.0,  0.00, 
 09/08/05, 21:00,  19.7, -9999,  24.0,  22.6,  20.3,   0.0,  0.00, 
 09/08/05, 22:00,  19.2, -9999,  23.7,  22.6,  20.4,   0.0,  0.00, 
 09/08/05, 23:00,  18.7, -9999,  23.3,  22.6,  20.4,   0.0,  0.00, 
 09/08/06, 00:00,  19.5, -9999,  23.1,  22.6,  20.4,   0.0,  0.00, 
 09/08/06, 01:00,  19.0, -9999,  22.9,  22.5,  20.4,   0.0,  0.00, 
 09/08/06, 02:00,  19.1, -9999,  22.7,  22.4,  20.4,   0.5,  0.00, 
 09/08/06, 03:00,  18.6, -9999,  22.5,  22.3,  20.4,   0.0,  0.00, 
 09/08/06, 04:00,  18.2, -9999,  22.3,  22.2,  20.5,   0.0,  0.00, 
 09/08/06, 05:00,  18.3, -9999,  22.1,  22.1,  20.4,   0.0,  0.00, 
 09/08/06, 06:00,  18.5, -9999,  21.9,  22.1,  20.4,   0.0,  0.03, 
 09/08/06, 07:00,  19.3, -9999,  21.8,  22.1,  20.6,   0.0,  0.20, 
 09/08/06, 08:00,  21.3, -9999,  21.8,  21.9,  20.6,   0.0,  0.83, 
 09/08/06, 09:00,  21.9, -9999,  22.0,  21.8,  20.6,   0.0,  1.05, 
 09/08/06, 10:00,  20.6, -9999,  22.4,  21.8,  20.6,   0.0,  0.76, 
 09/08/06, 11:00,  22.6, -9999,  22.6,  21.8,  20.6,   0.0,  1.11, 
 09/08/06, 12:00,  23.0, -9999,  23.1,  21.8,  20.6,   0.0,  2.39, 
 09/08/06, 13:00,  24.1, -9999,  23.7,  21.8,  20.6,   0.0,  1.50, 
 09/08/06, 14:00,  23.2, -9999,  23.9,  21.9,  20.6,   0.0,  1.71, 
 09/08/06, 15:00,  21.8, -9999,  24.1,  22.1,  20.6,   0.0,  0.32, 
 09/08/06, 16:00,  21.4, -9999,  23.9,  22.1,  20.6,   0.0,  0.45, 
 09/08/06, 17:00,  20.6, -9999,  23.9,  22.3,  20.6,   0.0,  0.23, 
 09/08/06, 18:00,  20.0, -9999,  23.6,  22.3,  20.6,   0.0,  0.03, 
 09/08/06, 19:00,  19.6, -9999,  23.4,  22.3,  20.6,   0.0,  0.00, 
 09/08/06, 20:00,  19.7, -9999,  23.3,  22.3,  20.6,   0.0,  0.00, 
 09/08/06, 21:00,  19.6, -9999,  23.1,  22.4,  20.7,   0.0,  0.00, 
 09/08/06, 22:00,  19.5, -9999,  22.9,  22.4,  20.7,   0.0,  0.00, 
 09/08/06, 23:00,  19.5, -9999,  22.7,  22.3,  20.7,   0.0,  0.00, 
 09/08/07, 00:00,  19.4, -9999,  22.4,  22.2,  20.7,   0.0,  0.00, 
 09/08/07, 01:00,  19.5, -9999,  22.3,  22.2,  20.7,   0.0,  0.00, 
 09/08/07, 02:00,  19.1, -9999,  22.2,  22.1,  20.7,   0.5,  0.00, 
 09/08/07, 03:00,  19.0, -9999,  22.0,  22.1,  20.7,   0.0,  0.00, 
 09/08/07, 04:00,  18.9, -9999,  21.9,  22.0,  20.6,   0.0,  0.00, 
 09/08/07, 05:00,  18.8, -9999,  21.8,  21.9,  20.6,   0.0,  0.00, 
 09/08/07, 06:00,  18.9, -9999,  21.7,  21.9,  20.7,   0.0,  0.00, 
 09/08/07, 07:00,  19.1, -9999,  21.6,  21.8,  20.6,   0.0,  0.10, 
 09/08/07, 08:00,  19.3, -9999,  21.7,  21.8,  20.8,   0.5,  0.33, 
 09/08/07, 09:00,  19.7, -9999,  21.7,  21.7,  20.8,   0.0,  0.47, 
 09/08/07, 10:00,  20.5, -9999,  21.8,  21.7,  20.8,   0.0,  0.86, 
 09/08/07, 11:00,  21.0, -9999,  22.0,  21.7,  20.8,   0.0,  0.81, 
 09/08/07, 12:00,  20.4, -9999,  22.3,  21.7,  20.8,   0.5,  0.63, 
 09/08/07, 13:00,  20.6, -9999,  22.5,  21.7,  20.8,   0.0,  0.77, 
 09/08/07, 14:00,  19.7, -9999,  22.6,  21.8,  20.8,   2.5,  0.57, 
 09/08/07, 15:00,  19.4, -9999,  22.7,  21.7,  20.8,   2.0,  0.20, 
 09/08/07, 16:00,  19.1, -9999,  22.5,  21.7,  20.6,   2.5,  0.08, 
 09/08/07, 17:00,  18.8, -9999,  22.1,  21.8,  20.6,   8.0,  0.01, 
 09/08/07, 18:00,  18.4, -9999,  21.9,  21.9,  20.6,   2.0,  0.13, 
 09/08/07, 19:00,  18.1, -9999,  21.8,  21.8,  20.7,   0.0,  0.20, 
 09/08/07, 20:00,  17.7, -9999,  21.7,  21.8,  20.7,   0.0,  0.00, 
 09/08/07, 21:00,  17.4, -9999,  21.6,  21.7,  20.8,   0.0,  0.00, 
 09/08/07, 22:00,  17.7, -9999,  21.3,  21.7,  20.8,   0.0,  0.00, 
 09/08/07, 23:00,  18.7, -9999,  21.1,  21.7,  20.8,   0.0,  0.00, 
 09/08/08, 00:00,  18.5, -9999,  21.0,  21.6,  20.7,   0.0,  0.00, 
 09/08/08, 01:00,  18.4, -9999,  20.9,  21.6,  20.7,   0.0,  0.00, 
 09/08/08, 02:00,  18.5, -9999,  20.9,  21.4,  20.7,   0.0,  0.00, 
 09/08/08, 03:00,  18.7, -9999,  20.8,  21.3,  20.7,   0.0,  0.00, 
 09/08/08, 04:00,  18.5, -9999,  20.7,  21.3,  20.7,   0.0,  0.00, 
 09/08/08, 05:00,  18.8, -9999,  20.8,  21.2,  20.7,   0.0,  0.00, 
 09/08/08, 06:00,  18.9, -9999,  20.6,  21.2,  20.7,   0.0,  0.00, 
 09/08/08, 07:00,  19.2, -9999,  20.6,  21.1,  20.7,   0.0,  0.08, 
 09/08/08, 08:00,  19.7, -9999,  20.8,  21.2,  20.8,   0.0,  0.25, 
 09/08/08, 09:00,  21.0, -9999,  20.9,  21.0,  20.8,   0.0,  1.68, 
 09/08/08, 10:00,  21.8, -9999,  21.5,  21.1,  20.8,   0.0,  1.70, 
 09/08/08, 11:00,  22.1, -9999,  21.8,  21.1,  20.8,   0.0,  1.02, 
 09/08/08, 12:00,  24.5, -9999,  22.5,  21.1,  20.7,   0.0,  2.78, 
 09/08/08, 13:00,  26.6, -9999,  23.5,  21.2,  20.6,   0.0,  3.57, 
 09/08/08, 14:00,  25.5, -9999,  24.0,  21.3,  20.7,   0.0,  2.57, 
 09/08/08, 15:00,  23.9, -9999,  24.1,  21.5,  20.7,   0.0,  1.08, 
 09/08/08, 16:00,  24.1, -9999,  24.1,  21.7,  20.7,   0.0,  1.17, 
 09/08/08, 17:00,  22.8, -9999,  24.3,  21.8,  20.7,   0.0,  0.89, 
 09/08/08, 18:00,  21.8, -9999,  24.3,  22.0,  20.6,   0.0,  0.09, 
 09/08/08, 19:00,  20.8, -9999,  24.0,  22.1,  20.7,   2.0,  0.00, 
 09/08/08, 20:00,  20.4, -9999,  23.7,  22.2,  20.7,   0.0,  0.00, 
 09/08/08, 21:00,  20.3, -9999,  23.5,  22.3,  20.7,   0.0,  0.00, 
 09/08/08, 22:00,  20.2, -9999,  23.3,  22.3,  20.7,   0.0,  0.00, 
 09/08/08, 23:00,  20.0, -9999,  23.0,  22.3,  20.6,   0.0,  0.00, 
 09/08/09, 00:00,  19.9, -9999,  22.9,  22.3,  20.7,   0.0,  0.00, 
 09/08/09, 01:00,  19.2, -9999,  22.7,  22.3,  20.7,   0.0,  0.00, 
 09/08/09, 02:00,  19.2, -9999,  22.6,  22.2,  20.8,   0.0,  0.00, 
 09/08/09, 03:00,  19.0, -9999,  22.3,  22.2,  20.7,   0.0,  0.00, 
 09/08/09, 04:00,  18.8, -9999,  22.2,  22.1,  20.7,   0.5,  0.00, 
 09/08/09, 05:00,  18.7, -9999,  22.0,  22.1,  20.7,   0.0,  0.00, 
 09/08/09, 06:00,  18.5, -9999,  21.9,  22.0,  20.7,   0.0,  0.00, 
 09/08/09, 07:00,  18.4, -9999,  21.8,  22.0,  20.8,   0.0,  0.11, 
 09/08/09, 08:00,  18.5, -9999,  21.7,  21.9,  20.8,   0.5,  0.27, 
 09/08/09, 09:00,  19.0, -9999,  21.7,  21.8,  20.8,   0.0,  0.59, 
 09/08/09, 10:00,  20.7, -9999,  21.8,  21.8,  20.8,   0.0,  1.06, 
 09/08/09, 11:00,  21.3, -9999,  22.2,  21.7,  20.8,   0.0,  1.55, 
 09/08/09, 12:00,  20.7, -9999,  22.6,  21.7,  20.8,   0.0,  0.73, 
 09/08/09, 13:00,  21.2, -9999,  22.8,  21.7,  20.8,   0.0,  0.83, 
 09/08/09, 14:00,  21.5, -9999,  22.9,  21.8,  20.8,   0.0,  1.12, 
 09/08/09, 15:00,  21.4, -9999,  23.1,  21.8,  20.9,   0.0,  0.73, 
 09/08/09, 16:00,  21.1, -9999,  23.2,  21.9,  20.9,   0.0,  0.39, 
 09/08/09, 17:00,  20.6, -9999,  23.0,  21.9,  20.9,   0.0,  0.23, 
 09/08/09, 18:00,  20.1, -9999,  22.9,  22.0,  20.8,   0.0,  0.10, 
 09/08/09, 19:00,  19.6, -9999,  22.8,  22.0,  20.8,   0.0,  0.00, 
 09/08/09, 20:00,  19.4, -9999,  22.5,  22.0,  20.8,   0.0,  0.00, 
 09/08/09, 21:00,  19.4, -9999,  22.3,  22.0,  20.8,   0.0,  0.00, 
 09/08/09, 22:00,  19.4, -9999,  22.2,  22.0,  20.8,   0.0,  0.00, 
 09/08/09, 23:00,  19.0, -9999,  22.0,  22.0,  20.8,   0.5,  0.00, 
 09/08/10, 00:00,  18.8, -9999,  21.9,  21.9,  20.8,   0.0,  0.00, 
 09/08/10, 01:00,  18.7, -9999,  21.7,  21.9,  20.9,   0.0,  0.00, 
 09/08/10, 02:00,  18.7, -9999,  21.7,  21.8,  20.8,   0.5,  0.00, 
 09/08/10, 03:00,  18.7, -9999,  21.6,  21.8,  20.8,   2.0,  0.00, 
 09/08/10, 04:00,  18.4, -9999,  21.3,  21.7,  20.8,   4.5,  0.00, 
 09/08/10, 05:00,  18.5, -9999,  21.1,  21.7,  20.8,   3.0,  0.00, 
 09/08/10, 06:00,  18.0, -9999,  21.0,  21.6,  20.8,   2.0,  0.00, 
 09/08/10, 07:00,  18.3, -9999,  20.9,  21.5,  20.8,   2.0,  0.05, 
 09/08/10, 08:00,  18.6, -9999,  20.8,  21.5,  20.9,   0.5,  0.26, 
 09/08/10, 09:00,  19.1, -9999,  20.9,  21.5,  20.8,   0.5,  0.43, 
 09/08/10, 10:00,  19.1, -9999,  21.0,  21.3,  20.8,   0.0,  0.37, 
 09/08/10, 11:00,  19.9, -9999,  21.1,  21.3,  20.8,   0.0,  0.58, 
 09/08/10, 12:00,  21.3, -9999,  21.4,  21.3,  20.8,   0.0,  1.08, 
 09/08/10, 13:00,  21.8, -9999,  21.7,  21.3,  20.9,   0.0,  1.21, 
 09/08/10, 14:00,  21.0, -9999,  21.9,  21.3,  20.9,   0.0,  0.77, 
 09/08/10, 15:00,  20.8, -9999,  22.1,  21.3,  20.9,   0.0,  0.77, 
 09/08/10, 16:00,  21.2, -9999,  22.3,  21.3,  20.8,   0.0,  0.97, 
 09/08/10, 17:00,  21.2, -9999,  22.6,  21.5,  20.8,   0.0,  0.42, 
 09/08/10, 18:00,  20.3, -9999,  22.5,  21.6,  20.9,   0.0,  0.19, 
 09/08/10, 19:00,  20.2, -9999,  22.5,  21.6,  20.9,   0.0,  0.01, 
 09/08/10, 20:00,  20.0, -9999,  22.3,  21.7,  20.9,   0.0,  0.00, 
 09/08/10, 21:00,  19.1, -9999,  22.1,  21.6,  20.8,   0.0,  0.00, 
 09/08/10, 22:00,  19.3, -9999,  21.9,  21.7,  20.9,   0.0,  0.00, 
 09/08/10, 23:00,  19.6, -9999,  21.8,  21.7,  20.8,   0.0,  0.00, 
 09/08/11, 00:00,  19.2, -9999,  21.7,  21.7,  20.8,   0.0,  0.00, 
 09/08/11, 01:00,  19.0, -9999,  21.5,  21.5,  20.8,   0.0,  0.00, 
 09/08/11, 02:00,  19.2, -9999,  21.4,  21.5,  20.8,   0.0,  0.00, 
 09/08/11, 03:00,  18.6, -9999,  21.2,  21.5,  20.8,   0.0,  0.00, 
 09/08/11, 04:00,  18.9, -9999,  21.1,  21.4,  20.8,   0.0,  0.00, 
 09/08/11, 05:00,  18.8, -9999,  21.1,  21.4,  20.8,   0.0,  0.00, 
 09/08/11, 06:00,  18.5, -9999,  20.9,  21.3,  20.8,   0.0,  0.00, 
 09/08/11, 07:00,  19.9, -9999,  20.8,  21.3,  20.8,   0.0,  0.55, 
 09/08/11, 08:00,  20.3, -9999,  20.9,  21.3,  20.9,   0.0,  1.23, 
 09/08/11, 09:00,  21.5, -9999,  21.4,  21.3,  20.9,   0.0,  1.26, 
 09/08/11, 10:00,  22.3, -9999,  21.8,  21.2,  20.8,   0.0,  1.49, 
 09/08/11, 11:00,  21.9, -9999,  22.2,  21.3,  20.8,   0.0,  0.98, 
 09/08/11, 12:00,  22.4, -9999,  22.6,  21.3,  20.8,   0.0,  1.04, 
 09/08/11, 13:00,  23.5, -9999,  22.9,  21.4,  20.8,   0.0,  1.41, 
 09/08/11, 14:00,  24.2, -9999,  23.2,  21.5,  20.8,   0.0,  2.03, 
 09/08/11, 15:00,  24.3, -9999,  23.5,  21.6,  20.8,   0.0,  2.12, 
 09/08/11, 16:00,  23.0, -9999,  23.6,  21.7,  20.8,   0.0,  1.36, 
 09/08/11, 17:00,  22.1, -9999,  23.8,  21.8,  20.8,   0.0,  1.41, 
 09/08/11, 18:00,  21.2, -9999,  23.7,  21.8,  20.8,   0.0,  0.67, 
 09/08/11, 19:00,  19.8, -9999,  23.6,  21.9,  20.8,   0.0,  0.08, 
 09/08/11, 20:00,  19.4, -9999,  23.3,  22.1,  20.8,   0.0,  0.00, 
 09/08/11, 21:00,  19.0, -9999,  23.1,  22.0,  20.8,   0.0,  0.00, 
 09/08/11, 22:00,  18.9, -9999,  22.8,  22.1,  20.8,   0.0,  0.00, 
 09/08/11, 23:00,  18.5, -9999,  22.6,  22.0,  20.8,   0.0,  0.00, 
 09/08/12, 00:00,  18.2, -9999,  22.3,  22.0,  20.8,   0.0,  0.00, 
 09/08/12, 01:00,  17.7, -9999,  22.1,  22.0,  20.8,   0.0,  0.00, 
 09/08/12, 02:00,  17.4, -9999,  21.9,  21.9,  20.7,   0.0,  0.00, 
 09/08/12, 03:00,  16.6, -9999,  21.7,  21.9,  20.8,   0.0,  0.00, 
 09/08/12, 04:00,  15.5, -9999,  21.6,  21.8,  20.8,   0.0,  0.00, 
 09/08/12, 05:00,  15.3, -9999,  21.2,  21.8,  20.8,   0.0,  0.00, 
 09/08/12, 06:00,  14.8, -9999,  20.9,  21.7,  20.8,   0.0,  0.00, 
 09/08/12, 07:00,  18.0, -9999,  20.8,  21.7,  20.8,   0.0,  0.61, 
 09/08/12, 08:00,  20.6, -9999,  20.8,  21.6,  20.8,   0.0,  1.38, 
 09/08/12, 09:00,  20.8, -9999,  21.3,  21.4,  20.8,   0.0,  2.11, 
 09/08/12, 10:00,  23.0, -9999,  21.9,  21.4,  20.9,   0.0,  2.65, 
 09/08/12, 11:00,  21.7, -9999,  22.8,  21.4,  20.8,   0.0,  1.74, 
 09/08/12, 12:00,  23.5, -9999,  23.3,  21.5,  20.9,   0.0,  1.63, 
 09/08/12, 13:00,  23.3, -9999,  23.7,  21.6,  20.8,   0.0,  1.56, 
 09/08/12, 14:00,  24.3, -9999,  24.0,  21.7,  20.9,   0.0,  2.43, 
 09/08/12, 15:00,  25.5, -9999,  24.2,  21.8,  20.8,   0.0,  2.21, 
 09/08/12, 16:00,  24.3, -9999,  24.5,  21.9,  20.9,   0.0,  1.54, 
 09/08/12, 17:00,  23.6, -9999,  24.6,  22.1,  20.9,   0.0,  1.36, 
 09/08/12, 18:00,  22.3, -9999,  24.5,  22.2,  20.9,   0.0,  0.46, 
 09/08/12, 19:00,  21.3, -9999,  24.3,  22.4,  20.9,   0.0,  0.12, 
 09/08/12, 20:00,  20.6, -9999,  23.9,  22.4,  20.8,   0.0,  0.00, 
 09/08/12, 21:00,  20.7, -9999,  23.5,  22.4,  20.8,   0.0,  0.00, 
 09/08/12, 22:00,  20.7, -9999,  23.3,  22.6,  20.9,   0.0,  0.00, 
 09/08/12, 23:00,  20.8, -9999,  23.1,  22.5,  20.9,   0.0,  0.00, 
 09/08/13, 00:00,  19.9, -9999,  22.9,  22.5,  20.9,   0.0,  0.00, 
 09/08/13, 01:00,  20.0, -9999,  22.7,  22.5,  20.9,   0.0,  0.00, 
 09/08/13, 02:00,  20.1, -9999,  22.5,  22.3,  20.9,   0.0,  0.00, 
 09/08/13, 03:00,  20.1, -9999,  22.4,  22.3,  20.9,   0.0,  0.00, 
 09/08/13, 04:00,  19.9, -9999,  22.2,  22.2,  21.0,   0.0,  0.00, 
 09/08/13, 05:00,  20.1, -9999,  22.1,  22.1,  20.9,   0.0,  0.00, 
 09/08/13, 06:00,  20.1, -9999,  22.0,  22.1,  20.9,   0.0,  0.00, 
 09/08/13, 07:00,  20.5, -9999,  21.9,  22.0,  20.9,   0.0,  0.15, 
 09/08/13, 08:00,  20.7, -9999,  21.9,  22.0,  21.0,   0.0,  0.26, 
 09/08/13, 09:00,  20.3, -9999,  22.0,  21.9,  21.0,   0.0,  0.26, 
 09/08/13, 10:00,  20.2, -9999,  22.0,  21.9,  21.0,   0.5,  0.33, 
 09/08/13, 11:00,  20.9, -9999,  22.0,  21.9,  21.0,   0.0,  0.60, 
 09/08/13, 12:00,  20.7, -9999,  22.2,  21.8,  20.9,   1.0,  0.53, 
 09/08/13, 13:00,  20.6, -9999,  22.3,  21.8,  21.0,   2.0,  0.28, 
 09/08/13, 14:00,  21.1, -9999,  22.3,  21.8,  21.0,   0.0,  0.52, 
 09/08/13, 15:00,  20.6, -9999,  22.4,  21.8,  21.0,   0.0,  0.39, 
 09/08/13, 16:00,  21.5, -9999,  22.5,  21.8,  21.0,   0.0,  0.90, 
 09/08/13, 17:00,  20.9, -9999,  22.8,  21.9,  21.0,   0.0,  0.41, 
 09/08/13, 18:00,  20.5, -9999,  22.8,  21.9,  20.9,   0.5,  0.04, 
 09/08/13, 19:00,  20.3, -9999,  22.7,  21.9,  20.9,   1.5,  0.00, 
 09/08/13, 20:00,  20.1, -9999,  22.4,  21.9,  21.0,   0.5,  0.00, 
 09/08/13, 21:00,  19.7, -9999,  22.3,  21.9,  21.0,   0.0,  0.00, 
 09/08/13, 22:00,  19.5, -9999,  22.2,  21.9,  21.0,   0.0,  0.00, 
 09/08/13, 23:00,  19.3, -9999,  22.0,  21.9,  21.0,   0.0,  0.00, 
 09/08/14, 00:00,  19.0, -9999,  21.9,  21.9,  20.9,   0.0,  0.00, 
 09/08/14, 01:00,  18.8, -9999,  21.8,  21.8,  21.0,   0.0,  0.00, 
 09/08/14, 02:00,  18.1, -9999,  21.7,  21.8,  21.0,   0.0,  0.00, 
 09/08/14, 03:00,  17.6, -9999,  21.7,  21.8,  21.0,   0.0,  0.00, 
 09/08/14, 04:00,  17.6, -9999,  21.4,  21.7,  20.9,   0.0,  0.00, 
 09/08/14, 05:00,  17.3, -9999,  21.3,  21.7,  20.9,   0.0,  0.00, 
 09/08/14, 06:00,  17.0, -9999,  21.2,  21.7,  21.0,   0.0,  0.00, 
 09/08/14, 07:00,  17.1, -9999,  21.1,  21.6,  20.9,   0.0,  0.14, 
 09/08/14, 08:00,  17.3, -9999,  21.0,  21.6,  20.9,   0.0,  0.37, 
 09/08/14, 09:00,  17.8, -9999,  21.1,  21.4,  20.9,   0.0,  0.63, 
 09/08/14, 10:00,  18.2, -9999,  21.2,  21.4,  20.9,   0.0,  0.68, 
 09/08/14, 11:00,  19.0, -9999,  21.4,  21.5,  20.9,   0.0,  1.00, 
 09/08/14, 12:00,  21.0, -9999,  21.7,  21.3,  20.9,   0.0,  1.82, 
 09/08/14, 13:00,  21.5, -9999,  22.4,  21.3,  20.9,   0.0,  2.44, 
 09/08/14, 14:00,  23.1, -9999,  22.9,  21.5,  20.9,   0.0,  2.34, 
 09/08/14, 15:00,  21.7, -9999,  23.3,  21.6,  21.0,   0.0,  2.30, 
 09/08/14, 16:00,  20.8, -9999,  23.4,  21.7,  21.0,   0.0,  1.59, 
 09/08/14, 17:00,  20.0, -9999,  23.5,  21.7,  21.0,   0.0,  0.93, 
 09/08/14, 18:00,  18.6, -9999,  23.4,  21.8,  21.0,   0.0,  0.28, 
 09/08/14, 19:00,  17.8, -9999,  23.2,  21.9,  20.9,   0.0,  0.02, 
 09/08/14, 20:00,  17.1, -9999,  22.9,  22.0,  20.9,   0.0,  0.00, 
 09/08/14, 21:00,  17.1, -9999,  22.6,  22.0,  21.0,   0.0,  0.00, 
 09/08/14, 22:00,  17.2, -9999,  22.4,  22.0,  21.0,   0.0,  0.00, 
 09/08/14, 23:00,  16.5, -9999,  22.1,  22.0,  21.0,   0.0,  0.00, 
 09/08/15, 00:00,  16.0, -9999,  21.8,  22.0,  20.9,   0.0,  0.00, 
 09/08/15, 01:00,  16.0, -9999,  21.5,  21.9,  20.9,   0.0,  0.00, 
 09/08/15, 02:00,  17.1, -9999,  21.3,  21.8,  20.9,   0.0,  0.00, 
 09/08/15, 03:00,  17.1, -9999,  21.1,  21.8,  20.9,   0.0,  0.00, 
 09/08/15, 04:00,  17.0, -9999,  21.0,  21.7,  20.9,   0.0,  0.00, 
 09/08/15, 05:00,  15.5, -9999,  20.9,  21.6,  20.9,   0.0,  0.00, 
 09/08/15, 06:00,  15.6, -9999,  20.6,  21.5,  20.9,   0.0,  0.01, 
 09/08/15, 07:00,  17.7, -9999,  20.4,  21.4,  20.9,   0.0,  0.46, 
 09/08/15, 08:00,  19.6, -9999,  20.4,  21.3,  20.9,   0.0,  1.15, 
 09/08/15, 09:00,  20.7, -9999,  20.8,  21.2,  20.9,   0.0,  2.18, 
 09/08/15, 10:00,  21.7, -9999,  21.4,  21.2,  20.9,   0.0,  2.90, 
 09/08/15, 11:00,  22.4, -9999,  22.5,  21.3,  21.0,   0.0,  3.04, 
 09/08/15, 12:00,  23.0, -9999,  23.4,  21.3,  21.0,   0.0,  1.58, 
 09/08/15, 13:00,  22.9, -9999,  23.9,  21.5,  21.0,   0.0,  1.92, 
 09/08/15, 14:00,  22.7, -9999,  24.1,  21.6,  21.0,   0.0,  1.51, 